[[[{"header":{"parameterUnit":"kt","parameterCategory":2,"dx":1,"dy":1,"la1":30.253999710083008,"la2":30.299108505249023,"lo1":-89.0895004272461,"lo2":-89.04439544677734,"nx":28,"ny":28,"refTime":"2022-10-08T21:00:00:Z","depth":0,"parameterNumber":1,"parameterNumberName":"U-component_of_WINDS"},"data":[-5.5922,-5.5993,-5.5981,-5.6055,-5.6057,-5.6105,-5.6119,-5.6134,-5.6143,-5.6199,-5.6229,-5.6222,-5.6225,-5.6257,-5.6287,-5.6283,-5.6298,-5.6333,-5.6323,-5.618,-5.616,-5.614,-5.6123,-5.6336,-5.6336,-5.6473,-5.6474,-5.6475,-5.582,-5.5822,-5.5858,-5.5884,-5.5915,-5.5874,-5.5891,-5.5919,-5.5963,-5.5974,-5.6002,-5.605,-5.6085,-5.6076,-5.6107,-5.614,-5.6122,-5.6149,-5.6148,-5.6149,-5.5995,-5.5978,-5.6163,-5.6163,-5.6163,-5.6163,-5.6163,-5.6163,-5.563,-5.5673,-5.5682,-5.572,-5.5729,-5.5747,-5.5785,-5.5776,-5.581,-5.5842,-5.5819,-5.5868,-5.5876,-5.5907,-5.5914,-5.5951,-5.5919,-5.5944,-5.5951,-5.5959,-5.5969,-5.5776,-5.5956,-5.5955,-5.5954,-5.5954,-5.5954,0,-5.5488,-5.5475,-5.5508,-5.5538,-5.5565,-5.5586,-5.5603,-5.5626,-5.5592,-5.5621,-5.5662,-5.5684,-5.5725,-5.5762,-5.5788,-5.5789,-5.575,-5.5744,-5.5761,-5.5775,-5.5784,-5.5782,-5.5535,-5.5739,-5.5737,-5.5736,-5.5735,-5.5734,-5.5298,-5.5349,-5.5351,-5.5376,-5.5382,-5.5422,-5.5443,-5.5409,-5.5433,-5.5448,-5.5487,-5.5523,-5.555,-5.5617,-5.5605,-5.5636,-5.5618,-5.5697,-5.5622,-5.5633,-5.5621,-5.562,-5.5625,-5.5714,-5.5716,-5.5718,-5.572,0,-5.5193,-5.5172,-5.5245,-5.5242,-5.5242,-5.5297,-5.5293,-5.5333,-5.532,-5.5373,-5.5384,-5.5363,-5.5403,-5.5378,-5.5418,-5.5404,-5.5493,-5.5473,-5.5491,-5.5486,-5.5557,-5.5551,-5.5786,-5.5815,-5.5592,-5.5594,-5.5596,0,-5.5023,-5.5091,-5.5055,-5.5099,-5.5172,-5.5136,-5.5209,-5.5205,-5.5211,-5.5252,-5.5203,-5.5243,-5.5204,-5.524,-5.5219,-5.5287,-5.5294,-5.5288,-5.5282,-5.5294,-5.5295,-5.5307,-5.5298,-5.5263,-5.5262,-5.5261,-5.526,0,-5.4863,-5.4921,-5.4992,-5.5001,-5.5004,-5.5038,-5.504,-5.5046,-5.5067,-5.5089,-5.5102,-5.5131,-5.5147,-5.5169,-5.5142,-5.5092,-5.5224,-5.515,-5.5218,-5.5219,-5.525,-5.5249,-5.5461,-5.5259,-5.5259,-5.5258,-5.5258,0,-5.4723,-5.4747,-5.4852,-5.4853,-5.487,-5.4916,-5.4942,-5.4975,-5.4985,-5.4975,-5.4992,-5.4956,-5.5012,-5.4941,-5.5018,-5.4961,-5.4979,-5.4978,-5.4982,-5.4987,-5.4909,-5.5034,-5.5237,-5.5258,-5.499,-5.4988,-5.4986,0,-5.4546,-5.4645,-5.4615,-5.4716,-5.4758,-5.4701,-5.4751,-5.4761,-5.4751,-5.4786,-5.4774,-5.4813,-5.4754,-5.4763,-5.4804,-5.4795,-5.4869,-5.4783,-5.4835,-5.4837,-5.4836,-5.5022,-5.506,-5.5195,-5.4957,-5.496,-5.4962,0,-5.4406,-5.4408,-5.4428,-5.4438,-5.4445,-5.448,-5.4538,-5.4568,-5.4593,-5.4609,-5.4657,-5.471,-5.4668,-5.4683,-5.4656,-5.4701,-5.4817,-5.465,-5.4649,-5.4683,-5.4939,-5.4975,-5.4998,-5.479,-5.4793,-5.4796,-5.4939,0,-5.4203,-5.425,-5.4302,-5.4325,-5.4347,-5.4408,-5.4381,-5.4408,-5.4381,-5.437,-5.4438,-5.4439,-5.447,-5.4487,-5.4461,-5.457,-5.4548,-5.4503,-5.4433,-5.4554,-5.4601,-5.4619,-5.4366,-5.4363,-5.4361,-5.436,0,0,-5.404,-5.4106,-5.407,-5.4125,-5.4142,-5.4081,-5.4149,-5.4158,-5.4179,-5.4192,-5.4152,-5.4228,-5.423,-5.4316,-5.4352,-5.4363,-5.4381,-5.4339,-5.4496,-5.4511,-5.4525,-5.4576,-5.4596,-5.4356,-5.4356,-5.4355,-5.4354,0,-5.3961,-5.3965,-5.4032,-5.404,-5.4051,-5.4035,-5.4051,-5.4051,-5.4047,-5.4113,-5.4062,-5.4099,-5.416,-5.417,-5.4183,-5.4328,-5.4288,-5.4339,-5.4427,-5.4478,-5.4496,-5.4511,-5.4565,-5.4584,-5.435,-5.435,-5.435,0,-5.382,-5.382,-5.3849,-5.3885,-5.3891,-5.3936,-5.3855,-5.3905,-5.3938,-5.3868,-5.3935,-5.3932,-5.3942,-5.4026,-5.4063,-5.4028,-5.4205,-5.4143,-5.4154,-5.4158,-5.4206,-5.4228,-5.4247,-5.3996,-5.3995,-5.3994,0,0,-5.3756,-5.3798,-5.3787,-5.3866,-5.3873,-5.3851,-5.3871,-5.3846,-5.3857,-5.3861,-5.3856,-5.3868,-5.3903,-5.3927,-5.3958,-5.4054,-5.4054,-5.4101,-5.4117,-5.4131,-5.4143,-5.4194,-5.4215,-5.3989,-5.3989,-5.3989,0,0,-5.3725,-5.3715,-5.3686,-5.3774,-5.3786,-5.378,-5.3829,-5.3793,-5.3818,-5.3809,-5.3768,-5.3769,-5.3847,-5.3846,-5.3793,-5.3933,-5.3864,-5.3876,-5.3931,-5.3952,-5.3968,-5.3968,-5.371,0,0,0,0,0,-5.363,-5.3716,-5.369,-5.3701,-5.3745,-5.3795,-5.38,-5.3769,-5.3721,-5.3761,-5.3751,-5.3706,-5.3809,-5.3761,-5.3772,-5.3832,-5.3935,-5.3945,-5.3954,-5.4048,-5.407,-5.4088,0,0,0,0,0,0,-5.3634,-5.3648,-5.3687,-5.3686,-5.3695,-5.3791,-5.3703,-5.3697,-5.3716,-5.3707,-5.3709,-5.3706,-5.368,-5.3753,-5.3763,-5.3821,-5.3707,-5.3939,-5.3947,-5.3954,-5.4055,-5.4073,-5.4089,0,0,0,0,0,-5.3637,-5.3648,-5.3727,-5.3684,-5.3693,-5.3672,-5.37,-5.3694,-5.3708,-5.3693,-5.3688,-5.3683,-5.3682,-5.3689,-5.3759,-5.3817,-5.3699,-5.3703,-5.3944,-5.3951,-5.3956,-5.4064,0,0,0,0,0,0,-5.3639,-5.3643,-5.3728,-5.3729,-5.3649,-5.3666,-5.3667,-5.3692,-5.3692,-5.3688,-5.3664,-5.3657,-5.3685,-5.3689,-5.3695,-5.3818,-5.3693,-5.3697,-5.37,-5.3949,-5.3954,-5.3959,0,0,0,0,0,0,-5.3637,-5.3644,-5.3728,-5.3686,-5.3682,-5.366,-5.3662,-5.3716,-5.3693,-5.3663,-5.3657,-5.3661,-5.3677,-5.3691,-5.3695,-5.3781,-5.3689,-5.3692,-5.3695,-5.3697,-5.3953,-5.3957,0,0,0,0,0,0,-5.3639,-5.3646,-5.3686,-5.3683,-5.3679,-5.3692,-5.3708,-5.3754,-5.3657,-5.3664,-5.3648,-5.3643,-5.3679,-5.3682,-5.3695,-5.378,-5.3781,-5.3689,-5.3691,-5.3693,-5.3695,0,0,0,0,0,0,0,-5.3641,-5.3605,-5.372,-5.368,-5.3677,-5.3741,-5.3742,-5.3742,-5.3656,-5.3652,-5.3649,-5.3645,-5.3666,-5.3671,-5.3675,-5.3779,0,0,-5.3688,-5.369,0,0,0,0,0,0,0,0,-5.3602,-5.3605,-5.372,-5.372,-5.372,-5.3742,-5.3742,-5.3742,-5.3656,-5.3653,-5.3649,-5.3647,-5.3667,-5.3671,-5.3674,0,0,0,0,0,0,0,0,0,0,0,0,0,0,0,-5.372,-5.372,0,-5.3742,-5.3742,-5.3742,-5.3655,-5.3653,-5.365,-5.3648,-5.3668,-5.3671,-5.3674,0,0,0,0,0,0,0,0,0,0,0,0,0,0,0,0,0,0,0,0,0,0,0,0,0,0,0,0,0,0,0,0,0,0,0,0,0,0,0,0,0,0,0,0,0,0,0,0,0,0,0,0,0,0,0,0,0,0,0,0,0,0,0,0,0,0,0,0,0]}],[{"header":{"parameterUnit":"kt","parameterCategory":2,"dx":1,"dy":1,"la1":30.253999710083008,"la2":30.299108505249023,"lo1":-89.0895004272461,"lo2":-89.04439544677734,"nx":28,"ny":28,"refTime":"2022-10-08T21:00:00:Z","depth":0,"parameterNumber":2,"parameterNumberName":"V-component_of_WINDS"},"data":[-11.2393,-11.2524,-11.2516,-11.2659,-11.2674,-11.277,-11.28,-11.2837,-11.2864,-11.2973,-11.3033,-11.3032,-11.3051,-11.3117,-11.3179,-11.3176,-11.3204,-11.3259,-11.3246,-11.3014,-11.2981,-11.295,-11.292,-11.3264,-11.3265,-11.3489,-11.3491,-11.3492,-11.2227,-11.2246,-11.2319,-11.2383,-11.2445,-11.2387,-11.2431,-11.2486,-11.2571,-11.2603,-11.2661,-11.2755,-11.2825,-11.2824,-11.2889,-11.2946,-11.2921,-11.2965,-11.2961,-11.2964,-11.2716,-11.2685,-11.2984,-11.2984,-11.2984,-11.2984,-11.2984,-11.2984,-11.1923,-11.2002,-11.2035,-11.2114,-11.2142,-11.2184,-11.2256,-11.2255,-11.2323,-11.2392,-11.2363,-11.2457,-11.2484,-11.2554,-11.2573,-11.2644,-11.2593,-11.2635,-11.2647,-11.2658,-11.2675,-11.2357,-11.2654,-11.2653,-11.2652,-11.2651,-11.265,0,-11.1697,-11.1685,-11.1753,-11.182,-11.1876,-11.1924,-11.1966,-11.201,-11.1972,-11.2029,-11.211,-11.2154,-11.224,-11.2312,-11.2368,-11.2378,-11.2321,-11.2312,-11.2342,-11.2359,-11.2369,-11.2367,-11.1965,-11.2303,-11.23,-11.2298,-11.2296,-11.2295,-11.1391,-11.1483,-11.1511,-11.1561,-11.1581,-11.166,-11.1704,-11.1664,-11.1712,-11.1755,-11.1824,-11.1896,-11.1952,-11.208,-11.2072,-11.2134,-11.2106,-11.2238,-11.2115,-11.2129,-11.211,-11.2106,-11.2115,-11.2263,-11.2267,-11.227,-11.2273,0,-11.122,-11.1202,-11.1339,-11.1356,-11.1363,-11.146,-11.1473,-11.1546,-11.1535,-11.1635,-11.1655,-11.1637,-11.1715,-11.1685,-11.1766,-11.1748,-11.1904,-11.1874,-11.1896,-11.1889,-11.2005,-11.1995,-11.2382,-11.2431,-11.2072,-11.2076,-11.2079,0,-11.0952,-11.1072,-11.1038,-11.1119,-11.125,-11.1207,-11.1338,-11.1341,-11.1364,-11.1441,-11.1372,-11.1445,-11.1396,-11.1464,-11.1438,-11.1559,-11.1573,-11.1567,-11.1559,-11.1575,-11.1576,-11.1598,-11.1582,-11.1534,-11.1532,-11.153,-11.1529,0,-11.0688,-11.0808,-11.0939,-11.0963,-11.0991,-11.1052,-11.1066,-11.109,-11.1133,-11.1182,-11.1208,-11.1267,-11.13,-11.1346,-11.1312,-11.123,-11.1459,-11.1339,-11.1452,-11.1454,-11.1505,-11.1503,-11.1853,-11.1526,-11.1526,-11.1525,-11.1524,0,-11.0468,-11.0523,-11.0714,-11.0736,-11.0768,-11.0852,-11.091,-11.0975,-11.1006,-11.0995,-11.1033,-11.0982,-11.1084,-11.0968,-11.1108,-11.1012,-11.1048,-11.105,-11.1057,-11.1066,-11.0937,-11.114,-11.1475,-11.151,-11.1073,-11.1069,-11.1065,0,-11.0171,-11.0358,-11.0322,-11.0503,-11.0585,-11.0503,-11.0595,-11.0624,-11.0618,-11.0684,-11.0674,-11.0749,-11.0656,-11.0675,-11.0748,-11.0741,-11.0866,-11.0723,-11.0817,-11.0821,-11.0815,-11.1122,-11.1181,-11.1405,-11.1017,-11.1022,-11.1025,0,-10.9938,-10.9973,-11.0007,-11.0033,-11.0066,-11.0133,-11.0238,-11.0304,-11.0351,-11.0389,-11.0475,-11.0578,-11.0512,-11.0544,-11.0507,-11.0585,-11.078,-11.0503,-11.0503,-11.0556,-11.0989,-11.1044,-11.1082,-11.0738,-11.0744,-11.0749,-11.0987,0,-10.9615,-10.9704,-10.9797,-10.9854,-10.9901,-11.0011,-10.9982,-11.0035,-10.9997,-10.9987,-11.0112,-11.0125,-11.0188,-11.0221,-11.0183,-11.0371,-11.0335,-11.0263,-11.0148,-11.0349,-11.0427,-11.0458,-11.0035,-11.0031,-11.0028,-11.0026,0,0,-10.9336,-10.9464,-10.942,-10.9521,-10.9559,-10.947,-10.9591,-10.9615,-10.9667,-10.9694,-10.963,-10.9777,-10.9789,-10.9944,-11.0004,-11.0028,-11.0059,-10.9989,-11.0253,-11.0279,-11.0302,-11.0386,-11.0419,-11.002,-11.0019,-11.0018,-11.0017,0,-10.9212,-10.9232,-10.9352,-10.9377,-10.9412,-10.9396,-10.9425,-10.9442,-10.9441,-10.9563,-10.9486,-10.9556,-10.9673,-10.9698,-10.9725,-10.997,-10.9907,-10.9991,-11.0135,-11.0224,-11.0253,-11.0279,-11.0368,-11.04,-11.001,-11.001,-11.001,0,-10.8979,-10.8994,-10.9049,-10.9129,-10.915,-10.9234,-10.9108,-10.9201,-10.9263,-10.9157,-10.9279,-10.9282,-10.931,-10.9459,-10.9524,-10.9467,-10.9771,-10.9668,-10.9686,-10.9693,-10.9777,-10.9812,-10.9844,-10.9427,-10.9425,-10.9423,0,0,-10.8875,-10.8958,-10.8959,-10.91,-10.9119,-10.9096,-10.9137,-10.9103,-10.9132,-10.9144,-10.9146,-10.9175,-10.9243,-10.9288,-10.9349,-10.9517,-10.9519,-10.9598,-10.9625,-10.9648,-10.9667,-10.9757,-10.9792,-10.9416,-10.9416,-10.9416,0,0,-10.8824,-10.8833,-10.879,-10.895,-10.8983,-10.8991,-10.9077,-10.9023,-10.9076,-10.9059,-10.9003,-10.9008,-10.9146,-10.9151,-10.906,-10.9307,-10.9194,-10.9215,-10.93,-10.9334,-10.9361,-10.9357,-10.8929,0,0,0,0,0,-10.8683,-10.8832,-10.8794,-10.8816,-10.8915,-10.9013,-10.9025,-10.8984,-10.8905,-10.8975,-10.8967,-10.8896,-10.909,-10.9009,-10.903,-10.9132,-10.9325,-10.9341,-10.9356,-10.9505,-10.9541,-10.9572,0,0,0,0,0,0,-10.8691,-10.8719,-10.8789,-10.8805,-10.8827,-10.9007,-10.8865,-10.8858,-10.8897,-10.8882,-10.89,-10.8897,-10.8862,-10.8995,-10.9015,-10.9112,-10.8922,-10.9331,-10.9345,-10.9357,-10.9518,-10.9547,-10.9573,0,0,0,0,0,-10.8698,-10.872,-10.889,-10.8802,-10.8821,-10.8803,-10.8859,-10.8852,-10.8881,-10.887,-10.8864,-10.8847,-10.8866,-10.8879,-10.9006,-10.9104,-10.8908,-10.8916,-10.934,-10.9351,-10.9361,-10.9532,0,0,0,0,0,0,-10.8703,-10.8713,-10.8892,-10.8896,-10.8743,-10.8791,-10.8798,-10.8847,-10.8865,-10.8861,-10.8812,-10.8801,-10.887,-10.888,-10.8891,-10.9104,-10.8896,-10.8904,-10.8909,-10.9348,-10.9357,-10.9364,0,0,0,0,0,0,-10.8701,-10.8717,-10.8894,-10.8822,-10.8817,-10.8782,-10.8787,-10.8888,-10.8866,-10.8806,-10.8797,-10.8807,-10.8852,-10.8881,-10.8889,-10.9048,-10.8888,-10.8895,-10.89,-10.8903,-10.9355,-10.9362,0,0,0,0,0,0,-10.8707,-10.8721,-10.882,-10.8817,-10.8812,-10.8855,-10.8869,-10.8971,-10.8808,-10.8807,-10.8791,-10.8784,-10.8856,-10.8863,-10.8889,-10.9044,-10.9047,-10.8888,-10.8893,-10.8896,-10.8899,0,0,0,0,0,0,0,-10.8712,-10.8628,-10.8869,-10.8813,-10.8809,-10.8934,-10.8935,-10.8936,-10.8806,-10.8799,-10.8793,-10.8787,-10.8845,-10.8854,-10.8862,-10.9042,0,0,-10.8887,-10.8891,0,0,0,0,0,0,0,0,-10.8621,-10.8626,-10.8869,-10.887,-10.8871,-10.8934,-10.8935,-10.8936,-10.8805,-10.88,-10.8794,-10.8789,-10.8848,-10.8854,-10.8861,0,0,0,0,0,0,0,0,0,0,0,0,0,0,0,-10.8869,-10.887,0,-10.8935,-10.8935,-10.8936,-10.8804,-10.88,-10.8795,-10.8791,-10.8849,-10.8855,-10.886,0,0,0,0,0,0,0,0,0,0,0,0,0,0,0,0,0,0,0,0,0,0,0,0,0,0,0,0,0,0,0,0,0,0,0,0,0,0,0,0,0,0,0,0,0,0,0,0,0,0,0,0,0,0,0,0,0,0,0,0,0,0,0,0,0,0,0,0,0]}]]]